OPS 0100 DEB *, 4843

Orbit data source: Space-Track

OPS 0100 DEB *, 4843 is space debris in LEO originally from a launch on Fri, 14 Apr 1967 UTC launched from the Air Force Western Test Range (AFWTR). Debris objects in space refer to the collection of defunct objects orbiting the Earth. Examples of debris include non-operational satellites, rocket bodies, and fragments generated from explosions, collisions, or faulty payload assembly.

Loading next visibility...
Identifier
4843, 1967-034E
Orbit
LEO
Country
Flag of USUS
Related business
Manufacturer
Unknown
Mission
Spacecraft
Bus & Motor
Unknown
Mass
Unknown
Launch date (UTC)
1967-04-14 (59 years ago)
Launch vehicle
Unknown
Launch site
Air Force Western Test Range (AFWTR)
Object type
Payload
Rocket body
Debris
Shape & HBR
Unknown shape, 0.1 m
Radar Cross Section
Medium (>0.1 m² and <1 m²)

Expand to show TLE details & history
Last TLE update: 3 days ago

TLE from 3 days ago
0 OPS 0100 DEB *
1 04843U 67034E   26172.40668446  .00000121  00000-0  16849-3 0  9990
2 04843  90.3526 141.3182 0029629 118.0313  35.2460 13.52658667274216
Epoch: 2026-06-21T09:45Z
TLE epoch observation values (Epoch: 2026-06-21T09:45:37.537Z)
Latitude
26.55884°
Longitude
-94.52026°
Altitude
1,047.799 km
Speed
7.339 km/s
True Right ascension
21h 25m 58s
True Declination
26° 25' 37"
Sunlit
Object was in daylight at epoch
Visualization orbit readout
Latitude
Unknown
Longitude
Unknown
Altitude
Unknown
Speed
Unknown
Apparent Right ascension
Unknown
Apparent Declination
Unknown
Sunlit
N/A
Visualization observer readout
Local Sidereal Time
19:43:30
Azimuth
Unknown
Elevation
Unknown
Doppler factor
Unknown
Orbital elements
Apogee altitude
1,081.576 km
Perigee altitude
1,037.502 km
Semi-major axis
7,437.676 km
Eccentricity
0.00296
Inclination
90.3526°
RAAN
141.3182°
Arg. of periapsis
118.0313°
True anomaly
35.44253°
Mean anomaly
35.246°
Eccentric anomaly
35.3442°
Mean motion
3.38366 °/min
Orbital period
106.39 mins
BSTAR
0.00016849
Loading maneuver chart data...
Computing Atmospheric mass density...
Loading historical data...
Loading historical data...
Loading historical data...
Loading historical data...
Loading historical data...
Loading historical data...
Loading historical data...

Documentation

Showing up to 5 results
|